{"data":{"norad_id":57630,"intl_designator":"2023-121E","name":"HEAD-3E","alt_names":[],"object_type":"PAYLOAD","status":"ACTIVE","operator":null,"country":"PRC","launch_date":"2023-08-14","launch_site_code":"XICLF","launch_vehicle":null,"mission":null,"orbit_class":"UNKNOWN","rcs_meters":null,"size_class":null,"mass_kg":null,"dimensions":null,"purposes":[],"wikipedia_slug":null,"has_3d_model":false,"image_url":null,"decayed_at":null,"tle_current":{"epoch":"2026-09-21T22:21:20.729952Z","epoch_age_seconds":87141,"freshness":"FRESH","line1":"1 57630U 23121E   26264.93148993  .00000513  00000+0  12807-3 0  9995","line2":"2 57630  45.0023 169.4716 0007933  40.3991 319.7455 14.63992317166067","mean_motion":14.63992317,"eccentricity":0.0007933,"inclination_deg":45.0023,"raan_deg":169.4716,"arg_perigee_deg":40.3991,"mean_anomaly_deg":319.7455,"bstar":0.00012807,"rev_number":16606,"period_min":98.361171932298,"perigee_km":674.71299523282,"apogee_km":685.91193115112,"semimajor_km":7058.449463192,"source":"CELESTRAK","updated_at":"2026-09-22T09:00:26.242767Z"}}}